Delavan, Wisconsin, United States (53115)
Lat: 42.63N, Lon: 88.64W
Wx Zone: WIZ070
Local Info
Past Weather Observations for Today

NOTE: This archive is for the closest National Weather Service station to Delavan. Information may differ from the station used for current weather conditions.

Click here for Long-term Archive

Time Weather Temperature Dewpoint Humidity Pressure Winds Precip Visibility
12:15
Clear
10°F / -12°C -8°F / -22°C 44% 30.48 in
(1032 mb)
NW 9.2 mph
(NW 15 kph)
- 10SM
11:55
Clear
10°F / -12°C -9°F / -23°C 40% 30.48 in
(1032 mb)
NW 11.5 mph
(NW 19 kph)
- 10SM
11:35
Clear
10°F / -12°C -8°F / -22°C 44% 30.51 in
(1033 mb)
NW 11.5 mph
(NW 19 kph)
- 10SM
11:15
Clear
9°F / -13°C -8°F / -22°C 47% 30.48 in
(1032 mb)
NW 12.7 mph
(NW 20 kph)
- 10SM
09:35
Clear
7°F / -14°C -9°F / -23°C 47% 30.48 in
(1032 mb)
NW 6.9 mph
(NW 11 kph)
- 10SM
09:15
Clear
5°F / -15°C -9°F / -23°C 51% 30.45 in
(1031 mb)
NW 5.8 mph
(NW 9 kph)
- 10SM
08:55
Clear
3°F / -16°C -9°F / -23°C 55% 30.45 in
(1031 mb)
NW 8.1 mph
(NW 13 kph)
- 10SM
08:35
Clear
3°F / -16°C -9°F / -23°C 55% 30.45 in
(1031 mb)
NW 8.1 mph
(NW 13 kph)
- 10SM
08:15
Clear
°F / -18°C -11°F / -24°C 60% 30.45 in
(1031 mb)
NW 8.1 mph
(NW 13 kph)
- 10SM
07:55
Clear
-4°F / -20°C -13°F / -25°C 65% 30.45 in
(1031 mb)
NW 8.1 mph
(NW 13 kph)
- 10SM
07:35
Clear
-8°F / -22°C -15°F / -26°C 70% 30.45 in
(1031 mb)
WNW 6.9 mph
(WNW 11 kph)
- 10SM
07:15
Clear
-13°F / -25°C -20°F / -29°C 69% 30.45 in
(1031 mb)
NW 3.5 mph
(NW 6 kph)
- 10SM
06:55
Clear
-6°F / -21°C -15°F / -26°C 64% 30.42 in
(1030 mb)
SW 4.6 mph
(SW 7 kph)
- 10SM
06:35
Clear
-11°F / -24°C -15°F / -26°C 84% 30.42 in
(1030 mb)
Calm - 10SM
06:15
Clear
-11°F / -24°C -17°F / -27°C 76% 30.39 in
(1029 mb)
Calm - 10SM
05:55
Clear
-11°F / -24°C -17°F / -27°C 76% 30.39 in
(1029 mb)
Calm - 10SM
05:35
Clear
-9°F / -23°C -15°F / -26°C 77% 30.39 in
(1029 mb)
Calm - 10SM
05:15
Clear
-9°F / -23°C -17°F / -27°C 70% 30.39 in
(1029 mb)
NW 3.5 mph
(NW 6 kph)
- 10SM
04:55
Clear
-9°F / -23°C -17°F / -27°C 70% 30.39 in
(1029 mb)
NNW 4.6 mph
(NNW 7 kph)
- 10SM
04:35
Clear
-9°F / -23°C -17°F / -27°C 70% 30.39 in
(1029 mb)
NW 3.5 mph
(NW 6 kph)
- 10SM
04:15
Clear
-6°F / -21°C -15°F / -26°C 64% 30.36 in
(1028 mb)
WNW 3.5 mph
(WNW 6 kph)
- 10SM
03:55
Clear
-2°F / -19°C -13°F / -25°C 59% 30.36 in
(1028 mb)
NW 3.5 mph
(NW 6 kph)
- 10SM
03:35
Clear
-2°F / -19°C -11°F / -24°C 65% 30.36 in
(1028 mb)
NNW 4.6 mph
(NNW 7 kph)
- 10SM
03:15
Clear
-4°F / -20°C -13°F / -25°C 65% 30.36 in
(1028 mb)
NNW 5.8 mph
(NNW 9 kph)
- 10SM
02:55
Clear
-2°F / -19°C -11°F / -24°C 65% 30.33 in
(1027 mb)
NW 3.5 mph
(NW 6 kph)
- 10SM
02:35
Clear
-4°F / -20°C -13°F / -25°C 65% 30.36 in
(1028 mb)
NNW 3.5 mph
(NNW 6 kph)
- 10SM
02:15
Clear
-4°F / -20°C -11°F / -24°C 71% 30.36 in
(1028 mb)
NNW 3.5 mph
(NNW 6 kph)
- 10SM
01:55
Clear
-8°F / -22°C -15°F / -26°C 70% 30.36 in
(1028 mb)
NNW 3.5 mph
(NNW 6 kph)
- 10SM
01:35
Clear
-4°F / -20°C -13°F / -25°C 65% 30.36 in
(1028 mb)
NNW 4.6 mph
(NNW 7 kph)
- 10SM
01:15
Clear
-4°F / -20°C -13°F / -25°C 65% 30.36 in
(1028 mb)
Calm - 10SM
00:55
Clear
-4°F / -20°C -11°F / -24°C 71% 30.36 in
(1028 mb)
Calm - 10SM
00:35
Clear
-4°F / -20°C -11°F / -24°C 71% 30.36 in
(1028 mb)
Calm - 10SM
00:15
Clear
-4°F / -20°C -13°F / -25°C 65% 30.36 in
(1028 mb)
Calm - 10SM
Time Weather Temperature Dewpoint Humidity Pressure Winds Precip Visibility


Weather for websites

WeatherForYou.com, LLC is not responsible for any damages or problems caused by this service. Current weather conditions are obtained from the closest station including government and personal stations which may have varying degrees of accuracy. Weather forecasts are derived from the NOAA NDFD. Like all things, this site belongs to Jesus Christ... He just trusts me to maintain it. If you have any questions or comments email webmaster@weatherforyou.com

Copyright © 2015, WeatherForYou.com LLC. All rights reserved.